Location: McFarlands Corners
(41.4117°N, 81.3382°W)
Time: 16:44:14
(UTC+00:00)

SR - Pass Details

Date: 20 February 2026
Orbit: 572 x 849 km, 66.7° (Epoch: 12 March)

Event Time Altitude Azimuth Distance (km) Brightness Sun altitude
Rises 16:14:05 0° 345° (NNW) 3,055 ? 34.3°
Reaches altitude 10° 16:17:44 10° 13° (NNE) 2,204 ? 34.6°
Maximum altitude 16:20:01 13° 40° (NE) 2,044 ? 34.8°
Drops below altitude 10° 16:22:23 10° 68° (ENE) 2,284 ? 34.9°
Sets 16:26:17 0° 95° (E) 3,272 ? 35.2°
